[[{"header":{"parameterUnit":"m.s-1","parameterCategory":1,"la1":30.2992,"la2":30.254,"lo1":-89.0895,"lo2":-89.0443,"dy":0.0025,"dx":0.0025,"nx":19,"ny":19,"refTime":"2026-05-06T03:00:00:Z","depth":0,"parameterNumber":2,"parameterNumberName":"U-component_of_WINDS"},"data":[0,0,0,4.1052,4.1055,4.1183,4.1183,4.1361,4.1362,0,0,0,0,0,0,0,0,0,0,0,4.1021,4.1022,4.1052,4.1055,4.1183,4.1183,4.136,4.1362,0,0,0,0,0,0,0,0,0,0,0,4.102,4.1022,4.1024,4.1056,4.1183,4.1184,4.136,4.1259,0,0,0,0,0,0,0,0,0,0,4.1132,4.111,4.1021,4.1024,4.1056,4.1183,4.1184,4.1254,4.1265,4.1308,0,4.1346,0,4.1357,4.1375,4.1375,0,0,0,4.105,4.11,4.1129,4.1024,4.1058,4.1183,4.1124,4.126,4.1273,4.1323,4.1349,4.1355,4.136,4.1376,4.1377,4.1637,4.1638,0,0,4.1043,4.1048,4.112,4.1137,4.1117,4.112,4.1128,4.1268,4.1297,4.135,4.1359,4.1363,4.1377,4.1379,4.1635,4.1637,0,0,0,4.1026,4.1043,4.1068,4.113,4.1152,4.1124,4.1133,4.129,4.1298,4.1361,4.1365,4.1378,4.1381,4.1634,4.1636,4.1711,0,0,0,4.1022,4.1033,4.1065,4.1069,4.115,4.1223,4.1153,4.1288,4.1304,4.1364,4.1378,4.1383,4.1632,4.1635,4.1705,4.1745,0,0,0,4.101,4.1032,4.1052,4.1069,4.1124,4.122,4.1236,4.1291,4.1307,4.1376,4.1383,4.1631,4.1634,4.17,4.1737,4.1815,0,0,0,4.0999,4.1117,4.1054,4.1187,4.1123,4.1265,4.1235,4.1341,4.1409,4.1379,4.1632,4.1636,4.1699,4.1732,4.181,4.1881,4.1911,0,0,4.1151,4.1136,4.1214,4.1161,4.1315,4.1245,4.1412,4.147,4.1473,4.1582,4.1589,4.1707,4.1737,4.1814,4.2077,4.2101,0,0,0,4.1264,4.132,4.136,4.1424,4.1471,4.1515,4.1548,4.157,4.1662,4.153,4.1756,4.1773,4.1818,4.1852,4.1873,4.1911,4.1651,4.1651,4.1651,4.1484,4.1481,4.1611,4.1623,4.1687,4.1719,4.177,4.1805,4.1784,4.1838,4.187,4.203,4.207,4.2085,4.2125,4.1907,4.1908,4.1908,4.1908,4.1706,4.1785,4.1754,4.1869,4.1865,4.1962,4.1998,4.198,4.207,4.2005,4.2045,4.1975,4.2111,4.2146,4.1914,4.1913,4.1912,4.1911,4.1911,4.185,4.1887,4.1912,4.2005,4.2077,4.2086,4.2174,4.2168,4.2163,4.2202,4.2236,4.2234,4.2232,4.2219,4.2219,4.222,4.222,4.2221,4.2221,4.199,4.2015,4.2089,4.2149,4.219,4.2243,4.2277,4.2317,4.2361,4.2349,4.235,4.2324,4.2125,4.2075,4.223,4.2228,4.2227,4.2226,4.2226,4.2215,4.2163,4.2278,4.2319,4.2389,4.2462,4.2453,4.2536,4.2569,4.2612,4.2578,4.2432,4.2417,4.2401,4.2359,4.2578,4.2578,4.2578,4.2578,4.2337,4.2328,4.2444,4.251,4.2574,4.2578,4.2708,4.2737,4.2758,4.2778,4.2746,4.269,4.2674,4.2668,4.2646,4.2608,4.2885,4.2885,4.2885,4.2475,4.2473,4.2584,4.2604,4.2658,4.2706,4.2829,4.2907,4.292,4.2898,4.2794,4.2781,4.2692,4.2663,4.2638,4.2604,4.2533,0,0]},{"header":{"parameterUnit":"m.s-1","parameterCategory":1,"la1":30.2992,"la2":30.254,"lo1":-89.0895,"lo2":-89.0443,"dy":0.0025,"dx":0.0025,"nx":19,"ny":19,"refTime":"2026-05-06T03:00:00:Z","depth":0,"parameterNumber":3,"parameterNumberName":"V-component_of_WINDS"},"data":[0,0,0,2.7626,2.763,2.7856,2.7856,2.8141,2.8144,0,0,0,0,0,0,0,0,0,0,0,2.7556,2.7558,2.7625,2.7631,2.7855,2.7856,2.8141,2.8144,0,0,0,0,0,0,0,0,0,0,0,2.7555,2.7558,2.756,2.7632,2.7855,2.7857,2.814,2.7972,0,0,0,0,0,0,0,0,0,0,2.7754,2.7687,2.7557,2.756,2.7633,2.7855,2.7857,2.7964,2.7982,2.8038,0,2.8085,0,2.8119,2.8163,2.8164,0,0,0,2.7634,2.7671,2.7734,2.756,2.7635,2.7855,2.7755,2.7974,2.7995,2.8062,2.8089,2.81,2.8123,2.8164,2.8166,2.8473,2.8475,0,0,2.7621,2.7595,2.772,2.7748,2.7711,2.7748,2.7762,2.7987,2.8015,2.809,2.8107,2.8128,2.8166,2.8168,2.8472,2.8474,0,0,0,2.7584,2.7587,2.7644,2.7736,2.7776,2.7754,2.777,2.8005,2.8026,2.811,2.8132,2.8168,2.8171,2.8471,2.8473,2.8513,0,0,0,2.7576,2.7565,2.7639,2.7625,2.7772,2.7893,2.7783,2.801,2.8037,2.813,2.8168,2.8174,2.8469,2.8472,2.8509,2.8537,0,0,0,2.7543,2.7561,2.7592,2.7623,2.7719,2.789,2.7924,2.8017,2.805,2.8164,2.8175,2.8468,2.8471,2.8505,2.8531,2.8611,0,0,0,2.75,2.7625,2.7592,2.7741,2.7717,2.7912,2.7923,2.807,2.8173,2.8169,2.847,2.8473,2.8504,2.8527,2.8607,2.8676,2.8701,0,0,2.7643,2.7641,2.7731,2.7708,2.7903,2.788,2.8082,2.82,2.8235,2.8392,2.84,2.851,2.853,2.8611,2.885,2.887,0,0,0,2.7768,2.7832,2.7889,2.7984,2.8077,2.816,2.825,2.8294,2.8428,2.831,2.8561,2.8574,2.8622,2.8656,2.8673,2.8717,2.8487,2.8486,2.8486,2.7936,2.7972,2.8123,2.8188,2.828,2.8372,2.8451,2.8526,2.8537,2.8595,2.8643,2.8783,2.8822,2.8835,2.888,2.868,2.8681,2.8681,2.8681,2.8151,2.8248,2.8259,2.8409,2.8448,2.8575,2.8668,2.8672,2.8797,2.875,2.8795,2.8743,2.8856,2.8897,2.8684,2.8684,2.8683,2.8683,2.8683,2.8266,2.832,2.837,2.8512,2.8618,2.8679,2.8798,2.8829,2.8859,2.8903,2.8957,2.8957,2.8962,2.8926,2.8927,2.8927,2.8928,2.8928,2.8928,2.8367,2.8422,2.8519,2.8627,2.8693,2.8784,2.8877,2.8943,2.9024,2.9038,2.9038,2.9044,2.8859,2.8813,2.8936,2.8935,2.8934,2.8933,2.8932,2.8575,2.8533,2.8681,2.8747,2.8878,2.8982,2.9019,2.9151,2.921,2.9268,2.9265,2.9122,2.9123,2.9109,2.9072,2.9255,2.9255,2.9255,2.9255,2.8674,2.8676,2.8836,2.8939,2.9044,2.9092,2.9262,2.9335,2.9405,2.9444,2.9422,2.9374,2.9359,2.9369,2.935,2.9315,2.9556,2.9556,2.9557,2.8804,2.8818,2.8956,2.9022,2.9127,2.9216,2.9377,2.9496,2.9567,2.957,2.9476,2.9464,2.9386,2.9359,2.9361,2.9331,2.9268,0,0]}]]